TimeCST,TemperatureF,Dew PointF,Humidity,Sea Level PressureIn,VisibilityMPH,Wind Direction,Wind SpeedMPH,Gust SpeedMPH,PrecipitationIn,Events,Conditions,WindDirDegrees,DateUTC
12:09 AM,21.2,17.6,86,30.39,10.0,Calm,Calm,-,N/A,,Mostly Cloudy,0,2000-01-29 06:09:00
12:31 AM,21.2,17.6,86,30.38,10.0,ENE,3.5,-,N/A,,Mostly Cloudy,70,2000-01-29 06:31:00
1:09 AM,21.2,17.6,86,30.37,10.0,Calm,Calm,-,N/A,,Overcast,0,2000-01-29 07:09:00
1:51 AM,21.2,15.8,80,30.36,10.0,Calm,Calm,-,N/A,,Mostly Cloudy,0,2000-01-29 07:51:00
2:10 AM,19.4,15.8,86,30.37,10.0,NE,3.5,-,N/A,,Mostly Cloudy,50,2000-01-29 08:10:00
2:49 AM,19.4,15.8,86,30.36,10.0,Calm,Calm,-,N/A,,Mostly Cloudy,0,2000-01-29 08:49:00
3:32 AM,19.4,15.8,86,30.35,7.0,NE,3.5,-,N/A,,Overcast,40,2000-01-29 09:32:00
3:50 AM,19.4,17.6,93,30.35,10.0,NE,3.5,-,N/A,,Overcast,40,2000-01-29 09:50:00
4:13 AM,19.4,15.8,86,30.35,10.0,NE,3.5,-,N/A,,Overcast,40,2000-01-29 10:13:00
4:49 AM,19.4,15.8,86,30.34,10.0,NNE,3.5,-,N/A,,Overcast,30,2000-01-29 10:49:00
5:09 AM,19.4,15.8,86,30.34,10.0,NNE,3.5,-,N/A,,Overcast,30,2000-01-29 11:09:00
5:51 AM,19.4,15.8,86,30.33,10.0,NNE,3.5,-,N/A,,Scattered Clouds,30,2000-01-29 11:51:00
6:30 AM,19.4,15.8,86,30.33,10.0,NE,4.6,-,N/A,,Scattered Clouds,40,2000-01-29 12:30:00
6:53 AM,19.4,15.8,86,30.34,10.0,NE,3.5,-,N/A,,Overcast,40,2000-01-29 12:53:00
7:10 AM,19.4,15.8,86,30.34,10.0,NE,3.5,-,N/A,,Overcast,40,2000-01-29 13:10:00
7:35 AM,19.4,15.8,86,30.34,10.0,NE,4.6,-,N/A,,Overcast,50,2000-01-29 13:35:00
8:09 AM,19.4,15.8,86,30.34,10.0,NE,5.8,-,N/A,,Scattered Clouds,50,2000-01-29 14:09:00
8:32 AM,19.4,15.8,86,30.35,10.0,NNE,3.5,-,N/A,,Clear,30,2000-01-29 14:32:00
8:50 AM,19.4,15.8,86,30.35,10.0,NE,5.8,-,N/A,,Clear,40,2000-01-29 14:50:00
9:09 AM,19.4,15.8,86,30.35,10.0,NE,4.6,-,N/A,,Clear,40,2000-01-29 15:09:00
9:30 AM,19.4,15.8,86,30.35,10.0,NE,3.5,-,N/A,,Clear,40,2000-01-29 15:30:00
9:52 AM,19.4,15.8,86,30.35,10.0,ENE,3.5,-,N/A,,Clear,60,2000-01-29 15:52:00
10:29 AM,21.2,15.8,80,30.35,10.0,Calm,Calm,-,N/A,,Clear,0,2000-01-29 16:29:00
10:52 AM,21.2,15.8,80,30.36,10.0,NNE,3.5,-,N/A,,Scattered Clouds,20,2000-01-29 16:52:00
11:12 AM,21.2,17.6,86,30.35,10.0,Calm,Calm,-,N/A,,Scattered Clouds,0,2000-01-29 17:12:00
11:49 AM,21.2,17.6,86,30.35,10.0,North,4.6,-,N/A,,Scattered Clouds,350,2000-01-29 17:49:00
12:14 PM,23.0,15.8,74,30.34,10.0,NNW,3.5,-,N/A,,Scattered Clouds,340,2000-01-29 18:14:00
12:30 PM,23.0,17.6,80,30.33,10.0,Calm,Calm,-,N/A,,Scattered Clouds,0,2000-01-29 18:30:00
12:52 PM,24.8,17.6,74,30.33,10.0,North,5.8,-,N/A,,Mostly Cloudy,350,2000-01-29 18:52:00
1:09 PM,23.0,17.6,80,30.32,10.0,North,5.8,-,N/A,,Scattered Clouds,350,2000-01-29 19:09:00
1:30 PM,24.8,17.6,74,30.32,10.0,North,4.6,-,N/A,,Mostly Cloudy,360,2000-01-29 19:30:00
1:49 PM,24.8,17.6,74,30.31,10.0,North,4.6,-,N/A,,Mostly Cloudy,350,2000-01-29 19:49:00
2:09 PM,24.8,17.6,74,30.30,10.0,NNE,5.8,-,N/A,,Mostly Cloudy,20,2000-01-29 20:09:00
2:30 PM,24.8,17.6,74,30.30,10.0,NNW,8.1,-,N/A,,Mostly Cloudy,340,2000-01-29 20:30:00
2:55 PM,24.8,17.6,74,30.30,10.0,NW,8.1,-,N/A,,Mostly Cloudy,320,2000-01-29 20:55:00
3:10 PM,24.8,17.6,74,30.30,10.0,NNW,6.9,-,N/A,,Mostly Cloudy,330,2000-01-29 21:10:00
3:29 PM,24.8,17.6,74,30.30,10.0,NW,9.2,-,N/A,,Mostly Cloudy,320,2000-01-29 21:29:00
3:51 PM,24.8,17.6,74,30.30,10.0,NNW,8.1,-,N/A,,Overcast,330,2000-01-29 21:51:00
4:09 PM,24.8,17.6,74,30.30,10.0,North,9.2,-,N/A,,Overcast,350,2000-01-29 22:09:00
5:10 PM,24.8,17.6,74,30.30,10.0,NNW,9.2,-,N/A,,Mostly Cloudy,340,2000-01-29 23:10:00
6:30 PM,23.0,17.6,80,30.32,10.0,NNE,10.4,-,N/A,,Overcast,20,2000-01-30 00:30:00
6:49 PM,21.2,17.6,86,30.32,10.0,NNE,11.5,-,N/A,,Mostly Cloudy,20,2000-01-30 00:49:00
7:10 PM,21.2,15.8,80,30.33,10.0,North,10.4,-,N/A,,Mostly Cloudy,360,2000-01-30 01:10:00
7:29 PM,21.2,15.8,80,30.33,10.0,North,10.4,-,N/A,,Overcast,360,2000-01-30 01:29:00
7:51 PM,19.4,14.0,80,30.33,10.0,North,9.2,-,N/A,,Overcast,360,2000-01-30 01:51:00
8:09 PM,17.6,12.2,79,30.34,10.0,NNW,6.9,-,N/A,,Overcast,340,2000-01-30 02:09:00
8:30 PM,17.6,10.4,73,30.34,10.0,NNW,6.9,-,N/A,,Mostly Cloudy,330,2000-01-30 02:30:00
8:55 PM,15.8,10.4,79,30.34,10.0,NW,8.1,-,N/A,,Scattered Clouds,320,2000-01-30 02:55:00
9:09 PM,14.0,8.6,79,30.33,10.0,NW,8.1,-,N/A,,Clear,320,2000-01-30 03:09:00
9:50 PM,14.0,8.6,79,30.33,10.0,NW,8.1,-,N/A,,Scattered Clouds,310,2000-01-30 03:50:00
10:12 PM,14.0,8.6,79,30.33,10.0,NW,8.1,-,N/A,,Clear,320,2000-01-30 04:12:00
10:29 PM,12.2,8.6,85,30.33,10.0,NW,8.1,-,N/A,,Scattered Clouds,320,2000-01-30 04:29:00
10:53 PM,17.6,12.2,79,30.33,10.0,NNW,9.2,-,N/A,,Overcast,330,2000-01-30 04:53:00
11:29 PM,19.4,14.0,80,30.33,10.0,NW,8.1,-,N/A,,Overcast,310,2000-01-30 05:29:00
11:51 PM,19.4,14.0,80,30.34,10.0,NW,6.9,-,N/A,,Overcast,310,2000-01-30 05:51:00